Weather History for KOXC - November, 2013

Change the Weather History Date:

Friday, November 8, 2013

  Actual Average Record
Temperature  
Mean Temperature 37 °F -  
Max Temperature 44 °F 48 °F 75 °F (2012)
Min Temperature 30 °F 32 °F 24 °F (1999)
Degree Days  
Heating Degree Days 28    
Moisture  
Dew Point 25 °F    
Average Humidity 62    
Maximum Humidity 75    
Minimum Humidity 43    
Precipitation  
Precipitation 0.00 in - - ()
Sea Level Pressure  
Sea Level Pressure 30.00 in    
Wind  
Wind Speed 4 mph (WNW)    
Max Wind Speed 129 mph    
Max Gust Speed 23 mph    
Visibility 10 miles    
Events      
Averages and records for this station are not official NWS values.
T = Trace of Precipitation, MM = Missing Value Source: NWS Daily Summary

Daily Weather History Graph

Daily Weather History Graph

Search for Another Location

Airport or City:

Trip Planner

Search our weather history database for the weather conditions in past years. The results will help you decide how hot, cold, wet, or windy it might be!

Date:

Astronomy

Nov. 08, 2013 Rise Set
Actual Time 6:32 AM EST 4:39 PM EST
Civil Twilight 6:03 AM EST 5:08 PM EST
Nautical Twilight 5:30 AM EST 5:41 PM EST
Astronomical Twilight 4:58 AM EST 6:13 PM EST
Moon 11:26 AM EST (11/8) 9:57 PM EST (11/8)
Length of Visible Light 11h 04m
Length of Day
10h 06m
Waxing Crescent, 33% of the Moon is Illuminated
Nov 8
Waxing Crescent
Nov 10
First Quarter
Nov 17
Full
Nov 25
Last Quarter
Dec 2
New

Hourly Weather History & Observations

Time (EST) Temp. Windchill Dew Point Humidity Pressure Visibility Wind Dir Wind Speed Gust Speed Precip Events Conditions
12:15 AM 37.4 °F - 26.6 °F 65% 29.89 in 10.0 mi Calm Calm - N/A   Clear
12:35 AM 37.4 °F - 26.6 °F 65% 29.89 in 10.0 mi Calm Calm - N/A   Clear
12:55 AM 35.6 °F - 24.8 °F 65% 29.89 in 10.0 mi Calm Calm - N/A   Clear
1:15 AM 32.0 °F - 24.8 °F 75% 29.90 in 10.0 mi Calm Calm - N/A   Clear
1:35 AM 33.8 °F - 26.6 °F 75% 29.90 in 10.0 mi Calm Calm - N/A   Mostly Cloudy
1:55 AM 35.6 °F - 26.6 °F 70% 29.90 in 10.0 mi Calm Calm - N/A   Overcast
2:15 AM 35.6 °F 32.8 °F 26.6 °F 70% 29.91 in 10.0 mi West 3.5 mph - N/A   Overcast
2:35 AM 35.6 °F 32.8 °F 28.4 °F 75% 29.92 in 10.0 mi West 3.5 mph - N/A   Overcast
2:55 AM 37.4 °F - 28.4 °F 70% 29.92 in 10.0 mi Calm Calm - N/A   Overcast
3:15 AM 35.6 °F 31.7 °F 28.4 °F 75% 29.92 in 10.0 mi West 4.6 mph - N/A   Overcast
3:35 AM 37.4 °F - 26.6 °F 65% 29.92 in 10.0 mi Calm Calm - N/A   Overcast
3:55 AM 37.4 °F 33.8 °F 26.6 °F 65% 29.92 in 10.0 mi West 4.6 mph - N/A   Overcast
4:15 AM 37.4 °F - 26.6 °F 65% 29.92 in 10.0 mi Calm Calm - N/A   Overcast
4:35 AM 35.6 °F 32.8 °F 26.6 °F 70% 29.93 in 10.0 mi West 3.5 mph - N/A   Overcast
4:55 AM 35.6 °F 32.8 °F 26.6 °F 70% 29.94 in 10.0 mi West 3.5 mph - N/A   Overcast
5:15 AM 35.6 °F 32.8 °F 26.6 °F 70% 29.95 in 10.0 mi West 3.5 mph - N/A   Overcast
5:35 AM 37.4 °F 33.8 °F 26.6 °F 65% 29.94 in 10.0 mi West 4.6 mph - N/A   Overcast
5:45 AM 37.4 °F - 26.6 °F 65% 29.95 in 10.0 mi Calm Calm - N/A   Overcast
6:45 AM 35.6 °F - 26.6 °F 70% 29.97 in 10.0 mi Calm Calm - N/A   Mostly Cloudy
7:45 AM 37.4 °F - 26.6 °F 65% 29.98 in 10.0 mi Calm Calm - N/A   Mostly Cloudy
8:45 AM 39.2 °F 34.2 °F 26.6 °F 61% 29.99 in 10.0 mi WNW 6.9 mph - N/A   Mostly Cloudy
9:45 AM 42.8 °F 37.0 °F 26.6 °F 53% 29.99 in 10.0 mi WNW 10.4 mph - N/A   Scattered Clouds
10:45 AM 42.8 °F 37.0 °F 24.8 °F 49% 29.99 in 10.0 mi NW 10.4 mph 19.6 mph N/A   Scattered Clouds
11:50 AM 44.6 °F 39.2 °F 26.6 °F 49% 29.98 in 10.0 mi NNW 10.4 mph 16.1 mph N/A   Scattered Clouds
12:55 PM 44.6 °F 38.8 °F 24.8 °F 46% 29.98 in 10.0 mi NW 11.5 mph 17.3 mph N/A   Mostly Cloudy
1:55 PM 44.6 °F 40.7 °F 23.0 °F 43% 29.99 in 10.0 mi WNW 6.9 mph 13.8 mph N/A   Mostly Cloudy
3:45 PM 42.8 °F - 24.8 °F 49% 30.04 in 10.0 mi NNW 128.9 mph 23.0 mph N/A   Mostly Cloudy
4:45 PM 39.2 °F 34.2 °F 23.0 °F 52% 30.05 in 10.0 mi WNW 6.9 mph 17.3 mph N/A   Partly Cloudy
5:45 PM 39.2 °F 32.0 °F 21.2 °F 49% 30.08 in 10.0 mi North 11.5 mph 20.7 mph N/A   Mostly Cloudy
6:45 PM 37.4 °F 32.1 °F 24.8 °F 60% 30.11 in 10.0 mi NW 6.9 mph - N/A   Scattered Clouds
7:45 PM 37.4 °F 32.8 °F 24.8 °F 60% 30.12 in 10.0 mi NNW 5.8 mph - N/A   Mostly Cloudy
9:15 PM 35.6 °F 32.8 °F 21.2 °F 56% 30.14 in 10.0 mi NNW 3.5 mph - N/A   Clear
9:35 PM 35.6 °F 32.8 °F 21.2 °F 56% 30.14 in 10.0 mi NNW 3.5 mph - N/A   Clear
9:55 PM 35.6 °F 32.8 °F 23.0 °F 60% 30.14 in 10.0 mi NW 3.5 mph - N/A   Clear
10:15 PM 32.0 °F - 21.2 °F 64% 30.15 in 10.0 mi Calm Calm - N/A   Clear
10:35 PM 32.0 °F - 19.4 °F 60% 30.15 in 10.0 mi Calm Calm - N/A   Clear
10:55 PM 32.0 °F 28.7 °F 21.2 °F 64% 30.15 in 10.0 mi SW 3.5 mph - N/A   Clear
11:15 PM 30.2 °F 26.7 °F 21.2 °F 69% 30.16 in 10.0 mi WSW 3.5 mph - N/A   Clear
11:35 PM 33.8 °F 30.8 °F 21.2 °F 60% 30.16 in 10.0 mi West 3.5 mph - N/A   Partly Cloudy
11:55 PM 33.8 °F 30.8 °F 21.2 °F 60% 30.16 in 10.0 mi West 3.5 mph - N/A   Mostly Cloudy